Probability
0 0 0 0 0 0 0 0 0 0 0 0 0 0 0 0 0 0 0 0 0 0 0 0 0 0 0 0 0 0 0 0 0 0 3 10 10 19
0 0 0 0 0 0 0 0 0 0 0 0 0 0 0 0 0 0 0 0 0 0 0 0 0 0 0 0 0 0 0 0 0 0 0 0 0 0
0 0 0 0 0 0 0 0 0 0 0 0 0 0 0 0 0 0 0 0 0 0 0 0 0 0 0 0 0 0 0 0 0 0 0 0 0 0
0 0 0 0 0 0 0 0 0 0 0 0 0 0 0 0 0 0 0 0 0 0 0 0 0 0 0 0 0 0 0 0 0 0 0 0 0 0
0 0 0 0 0 0 0 0 0 0 0 0 0 0 0 0 0 0 0 0 0 0 0 0 0 0 0 0 0 0 0 0 0 0 0 0 0 0
0 0 0 0 0 0 0 0 0 0 0 0 0 0 0 0 0 0 0 0 0 0 0 0 0 0 0 0 0 0 0 0 0 0 0 0 0 0
0 0 0 0 0 0 0 0 0 0 0 0 0 0 0 0 0 0 0 0 0 0 0 0 0 0 0 0 0 0 0 0 0 0 0 0 0 0
0 0 0 0 0 0 0 0 0 0 0 0 0 0 0 0 0 0 0 0 0 0 0 0 0 0 0 0 0 0 0 0 0 0 0 0 0 0
3 6 0 0 0 0 0 0 0 0 0 0 0 0 0 0 0 0 0 0 0 0 0 0 0 0 0 0 0 0 0 0 0 0 0 0 0 0
0 6 10 0 0 0 0 0 0 0 0 0 0 0 0 0 0 0 0 0 0 0 0 0 0 0 0 0 0 0 0 0 0 0 0 0 0 0
0 0 0 0 0 0 0 0 0 0 0 0 0 0 0 0 0 0 0 0 0 0 0 0 0 0 0 0 0 0 0 0 0 0 0 0 0 0
6 6 0 0 0 0 0 0 0 0 0 0 0 0 0 0 0 0 0 0 0 0 0 0 0 3 0 0 0 0 0 0 0 0 0 0 0 0
0 0 3 0 0 0 0 0 0 0 0 0 0 0 0 0 0 0 0 0 0 0 0 0 0 0 0 0 0 0 3 3 0 0 0 0 0 0
0 3 6 0 0 0 0 0 0 0 0 0 0 0 0 0 0 0 0 0 0 0 3 0 3 0 0 0 0 0 3 3 3 3 3 0 0 0
0 0 0 0 0 0 0 0 0 0 0 0 0 0 0 0 0 3 0 0 0 0 0 0 0 3 0 0 0 0 0 0 3 3 3 3 0 0
0 0 0 0 0 0 0 0 0 0 0 0 0 3 0 0 0 3 0 0 0 0 0 0 0 0 0 0 0 0 0 0 3 6 6 0 0 3
0 0 0 0 0 0 0 0 0 0 0 0 0 3 0 0 3 0 0 0 0 0 0 0 0 0 0 0 0 0 0 0 0 3 6 3 3 3
0 0 0 0 0 0 0 0 0 3 3 0 3 3 3 0 3 3 3 0 0 0 0 0 3 0 0 0 0 0 0 0 0 0 6 0 0 0
0 0 0 0 0 0 0 0 0 0 0 0 0 0 0 0 0 0 0 0 0 0 0 0 0 0 0 0 0 0 0 6 10 6 6 6 0 0
0 0 0 0 0 0 0 0 0 0 0 3 0 0 0 0 0 0 0 0 0 0 0 0 0 0 0 0 0 0 0 0 6 3 6 13 10 0
0 0 0 0 0 0 0 0 0 0 0 3 0 0 0 0 0 0 0 0 0 0 0 0 0 0 0 0 0 0 0 0 0 6 0 0 3 3
0 0 0 0 0 0 0 0 0 0 0 0 0 0 0 0 0 0 0 0 0 0 0 0 0 0 0 0 0 0 0 0 0 0 0 0 0 0
0 0 0 0 0 0 0 0 0 0 0 0 0 0 0 0 0 0 0 0 0 0 0 0 0 0 0 0 0 0 0 0 0 0 0 0 0 0
Height
5856 5854 5852 5850 5847 5845 5843 5842 5840 5838 5836 5835 5834 5833 5831 5830 5829 5828 5828 5828 5828 5828 5829 5830 5831 5833 5834 5836 5838 5840 5843 5845 5848 5851 5854 5857 5861 5864
5852 5850 5847 5845 5843 5841 5839 5837 5835 5833 5831 5829 5828 5826 5825 5824 5822 5821 5820 5819 5819 5819 5820 5821 5822 5823 5825 5827 5829 5831 5833 5836 5838 5841 5844 5847 5851 5854
5847 5845 5843 5840 5838 5836 5834 5831 5829 5827 5825 5823 5821 5819 5818 5816 5815 5813 5812 5811 5810 5810 5810 5811 5812 5813 5814 5816 5818 5820 5823 5825 5828 5831 5834 5837 5841 5844
5841 5839 5837 5835 5832 5830 5827 5825 5823 5821 5818 5816 5814 5812 5810 5809 5807 5806 5804 5802 5801 5801 5800 5800 5801 5802 5803 5805 5807 5809 5811 5814 5817 5820 5823 5827 5830 5833
5835 5833 5830 5828 5826 5823 5821 5818 5816 5814 5811 5809 5806 5804 5802 5800 5799 5797 5795 5794 5792 5791 5791 5790 5790 5790 5791 5793 5795 5797 5799 5802 5805 5808 5811 5815 5818 5822
5827 5825 5823 5821 5818 5816 5813 5811 5808 5806 5803 5801 5799 5796 5794 5792 5790 5788 5786 5784 5783 5781 5780 5780 5779 5779 5779 5780 5782 5784 5786 5789 5792 5795 5799 5802 5806 5810
5820 5817 5815 5812 5810 5807 5805 5802 5800 5797 5795 5792 5790 5787 5785 5783 5781 5778 5776 5774 5773 5771 5770 5769 5768 5768 5767 5768 5769 5771 5773 5775 5779 5782 5785 5789 5793 5797
5811 5809 5806 5804 5801 5798 5796 5793 5791 5788 5785 5783 5781 5778 5775 5773 5771 5768 5766 5764 5762 5761 5759 5758 5756 5756 5755 5756 5757 5758 5759 5762 5765 5768 5772 5775 5780 5784
5802 5799 5797 5794 5792 5789 5786 5784 5781 5778 5776 5773 5771 5768 5765 5763 5760 5758 5756 5754 5752 5749 5748 5746 5744 5744 5744 5744 5744 5745 5746 5748 5751 5754 5757 5761 5765 5770
5792 5789 5786 5784 5781 5778 5775 5773 5770 5768 5765 5763 5760 5757 5754 5752 5749 5747 5745 5743 5741 5738 5736 5735 5733 5732 5732 5732 5732 5733 5734 5735 5738 5740 5743 5747 5751 5755
5780 5778 5775 5773 5770 5766 5763 5761 5759 5756 5753 5751 5749 5746 5743 5740 5738 5736 5734 5731 5730 5727 5725 5723 5722 5720 5720 5720 5720 5720 5721 5722 5725 5727 5730 5733 5736 5740
5768 5765 5763 5760 5757 5754 5751 5749 5746 5744 5741 5738 5736 5734 5731 5728 5726 5723 5721 5719 5718 5716 5713 5711 5710 5709 5708 5708 5707 5708 5708 5710 5712 5714 5716 5719 5722 5726
5754 5752 5749 5747 5744 5740 5737 5735 5733 5730 5727 5725 5723 5720 5718 5716 5713 5711 5709 5707 5706 5705 5702 5700 5698 5697 5696 5696 5696 5696 5696 5697 5699 5701 5703 5706 5709 5713
5740 5737 5734 5731 5728 5725 5723 5721 5718 5714 5712 5711 5709 5707 5704 5702 5700 5698 5697 5695 5693 5692 5690 5687 5686 5685 5684 5684 5684 5684 5684 5684 5686 5688 5690 5693 5696 5699
5723 5721 5718 5715 5712 5709 5707 5704 5701 5698 5697 5695 5694 5692 5690 5687 5686 5684 5683 5681 5680 5679 5677 5675 5674 5673 5672 5672 5672 5672 5672 5672 5673 5675 5677 5679 5683 5687
5705 5702 5699 5696 5693 5691 5688 5686 5684 5682 5680 5678 5677 5676 5674 5672 5671 5670 5668 5667 5666 5666 5664 5663 5661 5660 5660 5659 5659 5660 5659 5660 5660 5662 5664 5667 5670 5673
5686 5683 5680 5677 5674 5671 5669 5667 5665 5663 5661 5661 5659 5659 5658 5657 5656 5655 5654 5652 5652 5652 5651 5650 5649 5648 5647 5647 5647 5647 5646 5647 5648 5649 5651 5654 5657 5660
5665 5662 5659 5655 5652 5650 5648 5646 5645 5644 5643 5642 5641 5641 5641 5641 5640 5639 5639 5638 5638 5637 5637 5636 5635 5635 5635 5635 5634 5634 5634 5635 5635 5636 5638 5640 5644 5647
5643 5639 5636 5633 5630 5628 5626 5624 5624 5624 5623 5623 5623 5623 5624 5624 5624 5624 5624 5624 5624 5624 5623 5623 5622 5621 5621 5622 5622 5621 5622 5622 5622 5624 5625 5627 5630 5633
5620 5616 5613 5611 5608 5606 5604 5603 5602 5602 5603 5604 5605 5606 5606 5607 5608 5609 5609 5610 5610 5610 5610 5610 5609 5609 5608 5609 5609 5609 5609 5609 5610 5611 5612 5614 5616 5619
5598 5594 5591 5589 5586 5585 5583 5582 5582 5582 5584 5585 5586 5588 5590 5591 5593 5594 5595 5595 5595 5596 5597 5597 5597 5596 5596 5596 5597 5597 5597 5597 5598 5598 5599 5601 5603 5606
5578 5574 5571 5569 5567 5565 5564 5563 5564 5565 5566 5567 5569 5572 5574 5576 5578 5579 5581 5582 5582 5583 5584 5584 5584 5584 5583 5583 5584 5585 5585 5585 5585 5586 5587 5589 5590 5592
5559 5556 5553 5551 5549 5548 5547 5547 5547 5549 5551 5552 5554 5557 5559 5561 5564 5565 5567 5568 5570 5571 5572 5572 5572 5572 5572 5572 5572 5573 5573 5573 5573 5574 5576 5577 5578 5580
Wind_Speed
16 17 17 17 18 18 18 19 20 20 20 20 20 21 22 24 26 28 29 31 33 34 35 35 36 37 37 37 38 38 38 39 40 40 41 42 44 43
18 18 18 19 19 20 20 20 21 21 22 22 22 22 22 24 25 27 29 30 33 35 36 37 39 39 40 40 40 40 41 41 41 42 42 43 44 45
20 20 20 20 21 21 22 22 22 22 23 24 24 24 24 24 25 26 28 30 32 33 36 38 39 41 42 42 43 43 44 44 44 44 44 44 44 45
22 22 22 23 23 23 23 23 24 24 25 26 26 26 26 26 26 27 28 29 31 33 34 37 39 41 43 43 44 45 46 47 47 47 47 46 46 46
25 25 25 25 25 25 25 25 26 26 27 27 28 29 29 28 28 28 29 30 31 33 34 36 37 40 42 44 45 46 47 48 49 50 50 49 49 48
27 27 27 27 28 28 28 28 28 28 28 29 30 30 30 30 30 30 30 31 32 33 34 35 37 39 41 43 45 47 48 49 50 51 51 51 51 50
29 29 30 30 30 31 31 31 30 30 30 31 31 32 33 32 32 32 32 32 33 34 34 35 36 38 39 41 44 46 47 49 50 51 52 53 53 52
31 32 32 32 33 33 33 33 33 33 33 33 33 34 34 34 34 34 34 34 34 35 35 36 37 37 38 40 41 43 46 48 49 50 52 53 54 54
34 34 34 35 35 36 36 36 36 36 36 35 35 36 36 36 36 36 35 35 35 36 36 36 38 38 38 39 40 42 44 46 48 49 51 53 54 55
37 37 37 38 39 39 38 38 38 38 38 37 37 38 38 38 38 37 37 36 36 37 37 37 38 39 39 39 39 41 43 44 46 48 50 51 53 55
40 41 41 41 42 42 42 41 41 41 41 40 40 40 40 40 40 39 38 38 37 37 38 38 38 39 39 39 40 40 42 43 44 46 47 49 51 54
44 44 44 44 45 45 45 44 44 44 45 44 42 42 41 41 41 41 40 39 38 38 39 39 39 39 39 39 40 41 41 42 43 44 46 47 49 51
48 47 47 47 47 48 48 48 47 47 47 46 45 44 43 43 43 42 42 41 40 38 39 40 39 39 40 39 39 40 41 41 42 43 45 46 47 49
51 51 51 51 51 51 51 51 51 51 50 49 47 46 46 45 45 44 43 42 41 40 40 41 40 40 40 39 39 39 40 41 41 42 43 45 47 48
55 56 55 55 55 55 55 54 54 54 53 51 50 49 48 48 47 46 45 43 42 41 41 41 41 40 40 40 39 39 40 41 41 42 42 43 45 47
59 59 59 60 60 59 58 58 57 55 55 54 53 51 50 49 47 47 46 45 43 42 41 41 41 40 40 40 40 40 40 41 42 42 42 43 44 45
64 64 64 64 64 63 61 60 59 57 57 56 55 53 51 50 49 48 47 46 44 42 41 41 41 41 40 40 40 40 40 41 41 42 43 43 43 44
67 67 67 66 65 64 63 62 60 59 57 56 55 53 51 50 49 48 47 45 44 42 41 40 41 41 40 39 39 40 40 40 41 42 43 43 43 44
69 68 68 66 65 64 63 61 59 58 56 55 54 52 50 49 48 47 45 44 42 41 40 40 40 40 40 39 38 39 39 40 40 41 42 43 42 43
68 67 66 64 62 61 60 59 57 56 54 52 50 49 49 48 47 47 46 44 43 42 40 40 40 39 39 38 37 38 38 39 39 40 41 42 42 43
64 63 61 60 58 56 54 53 52 51 50 50 48 47 47 47 46 45 44 43 42 41 40 39 39 39 38 38 37 36 37 38 37 38 39 40 41 42
57 56 54 53 51 50 48 47 46 45 45 45 45 45 45 44 43 43 43 43 41 40 38 37 37 37 37 37 36 36 36 37 37 37 37 38 39 40
50 48 47 46 45 44 43 41 40 39 39 39 39 39 39 39 39 39 39 38 37 37 37 36 36 36 36 36 35 35 35 35 36 36 35 36 37 39
Wind_Direction
312 313 313 314 313 309 306 305 302 299 295 291 288 285 283 280 276 273 270 267 265 262 260 259 258 256 255 254 252 250 248 246 246 245 243 241 239 239
306 307 308 308 309 309 306 303 302 299 297 295 292 289 287 284 281 278 274 271 268 265 262 260 258 257 255 254 252 251 249 248 247 246 246 243 240 239
302 303 304 305 306 305 304 302 300 298 297 296 294 292 290 288 285 281 278 275 272 268 265 263 260 258 256 254 252 251 250 249 248 247 246 245 243 241
299 300 301 302 303 303 303 301 300 298 296 295 294 293 292 290 289 285 282 278 275 272 269 266 263 261 258 256 253 251 250 249 248 247 246 246 244 242
296 297 299 300 301 301 301 301 300 298 296 295 293 292 292 291 291 289 285 282 278 275 272 270 267 264 261 258 255 253 251 249 248 247 246 245 244 243
295 297 297 299 300 300 300 300 299 298 297 295 293 292 291 292 292 290 288 285 281 278 275 273 270 268 264 260 257 255 253 251 250 248 247 246 244 244
294 296 296 297 298 299 298 298 298 297 297 295 293 292 291 292 292 291 289 287 284 280 278 275 273 270 267 264 260 257 255 253 251 250 248 246 245 244
293 294 295 295 296 297 297 296 296 296 296 295 293 291 290 291 291 290 289 288 285 283 280 278 275 272 269 266 263 259 257 254 252 250 249 247 246 245
292 293 294 295 294 294 294 294 294 294 294 294 293 291 290 290 290 290 289 288 286 284 282 279 277 274 271 269 265 262 258 255 253 252 249 248 246 245
292 292 293 294 293 292 292 292 293 293 293 293 292 291 290 289 289 289 288 287 286 284 283 280 277 275 273 270 267 264 260 257 254 252 250 248 246 245
290 291 292 292 292 291 290 291 292 292 292 291 291 290 289 288 288 288 287 287 286 284 283 281 278 276 274 271 268 266 262 259 256 253 250 248 247 245
290 290 290 290 289 288 289 289 290 290 290 290 289 288 288 287 286 286 286 285 284 283 282 280 278 276 274 271 269 267 264 260 256 254 251 249 248 246
289 288 288 288 287 286 287 288 288 288 287 287 286 285 285 285 285 284 284 284 283 282 280 279 278 276 274 272 270 268 265 262 258 254 252 250 249 247
288 287 287 287 286 286 286 286 286 286 285 285 284 284 283 283 283 282 282 282 281 280 279 278 277 275 274 272 269 268 266 264 260 257 253 250 249 247
287 287 286 285 285 285 285 285 285 284 284 283 283 282 282 281 281 281 280 279 279 278 277 276 276 275 274 272 269 268 266 264 262 258 255 252 249 247
286 286 285 285 285 284 284 283 283 282 282 281 281 280 280 279 279 279 279 277 277 276 275 275 274 274 273 272 269 268 266 264 262 259 256 254 251 248
285 285 284 284 283 283 282 282 281 280 279 279 279 278 277 277 277 277 276 275 275 274 274 274 273 273 273 272 269 268 266 264 262 260 257 255 251 248
284 284 284 283 282 282 281 279 279 278 277 276 276 275 274 273 272 273 273 273 273 273 273 273 272 272 271 270 269 268 266 264 262 260 258 256 252 249
284 284 283 283 282 281 280 278 277 275 274 272 271 270 269 269 269 269 270 271 271 271 271 272 272 272 271 270 267 267 266 265 263 261 259 256 253 249
285 285 284 283 282 280 279 277 275 273 271 268 267 266 266 266 266 267 267 268 269 269 270 271 271 271 271 269 267 267 266 265 264 261 259 256 253 250
286 286 284 283 282 280 278 276 274 271 268 265 263 262 262 262 262 263 264 266 267 268 269 269 269 269 269 268 267 267 267 265 263 261 259 257 254 251
287 286 284 283 281 279 277 275 272 269 267 264 263 260 258 259 261 263 264 264 265 265 266 267 267 268 268 268 267 266 265 264 262 261 259 258 255 252
287 286 284 282 280 278 276 272 270 268 265 264 261 260 258 258 259 261 262 262 261 262 264 265 265 266 267 267 267 265 263 262 262 261 259 257 254 251